TimeEST,TemperatureF,Dew PointF,Humidity,Sea Level PressureIn,VisibilityMPH,Wind Direction,Wind SpeedMPH,Gust SpeedMPH,PrecipitationIn,Events,Conditions,WindDirDegrees,DateUTC
12:53 AM,50.0,37.0,61,30.35,10.0,NE,11.5,-,N/A,,Overcast,40,2012-11-14 05:53:00
1:53 AM,48.9,37.0,64,30.34,10.0,NE,12.7,19.6,N/A,,Overcast,40,2012-11-14 06:53:00
2:53 AM,48.9,37.0,64,30.35,10.0,NE,13.8,-,N/A,,Overcast,40,2012-11-14 07:53:00
3:53 AM,48.9,37.0,64,30.35,10.0,NE,10.4,-,N/A,,Overcast,40,2012-11-14 08:53:00
4:53 AM,48.0,37.9,68,30.36,10.0,NNE,11.5,-,N/A,,Overcast,30,2012-11-14 09:53:00
5:53 AM,48.0,37.0,66,30.37,10.0,NNE,13.8,-,N/A,,Overcast,30,2012-11-14 10:53:00
6:53 AM,46.0,37.0,71,30.38,10.0,NNE,12.7,-,N/A,,Overcast,20,2012-11-14 11:53:00
7:53 AM,45.0,35.1,68,30.41,10.0,NNE,10.4,-,N/A,,Overcast,20,2012-11-14 12:53:00
8:53 AM,46.0,34.0,63,30.41,10.0,NNE,19.6,23.0,N/A,,Overcast,30,2012-11-14 13:53:00
9:53 AM,46.9,34.0,61,30.42,10.0,NNE,12.7,-,N/A,,Overcast,30,2012-11-14 14:53:00
10:53 AM,48.0,35.1,61,30.42,10.0,NE,12.7,-,N/A,,Overcast,40,2012-11-14 15:53:00
11:53 AM,50.0,37.0,61,30.41,10.0,NNE,11.5,-,N/A,,Overcast,30,2012-11-14 16:53:00
12:53 PM,53.1,37.9,57,30.37,10.0,NE,10.4,18.4,N/A,,Overcast,40,2012-11-14 17:53:00
1:53 PM,55.0,39.0,55,30.34,10.0,NNE,13.8,-,N/A,,Overcast,30,2012-11-14 18:53:00
2:08 PM,55.4,37.4,51,30.34,10.0,NNE,12.7,-,N/A,,Overcast,30,2012-11-14 19:08:00
2:53 PM,55.9,39.0,53,30.33,10.0,ENE,13.8,-,N/A,,Overcast,60,2012-11-14 19:53:00
3:53 PM,55.0,39.0,55,30.33,10.0,NE,11.5,-,N/A,,Overcast,50,2012-11-14 20:53:00
4:37 PM,55.4,39.2,54,30.33,10.0,ENE,10.4,-,N/A,,Overcast,60,2012-11-14 21:37:00
4:53 PM,54.0,39.0,57,30.32,10.0,NE,11.5,-,N/A,,Overcast,50,2012-11-14 21:53:00
5:43 PM,53.6,37.4,54,30.33,10.0,NE,6.9,-,N/A,,Overcast,40,2012-11-14 22:43:00
5:53 PM,53.1,37.9,57,30.33,10.0,NE,6.9,-,N/A,,Overcast,50,2012-11-14 22:53:00
6:44 PM,53.6,37.4,54,30.33,10.0,NE,8.1,-,N/A,,Overcast,40,2012-11-14 23:44:00
6:53 PM,53.1,36.0,52,30.33,10.0,NE,8.1,-,N/A,,Overcast,40,2012-11-14 23:53:00
7:23 PM,53.6,35.6,51,30.35,10.0,NE,6.9,-,N/A,,Overcast,50,2012-11-15 00:23:00
7:49 PM,53.6,35.6,51,30.34,10.0,NNE,8.1,-,N/A,,Overcast,20,2012-11-15 00:49:00
7:53 PM,53.1,36.0,52,30.33,10.0,NNE,8.1,-,N/A,,Overcast,30,2012-11-15 00:53:00
8:48 PM,51.8,37.4,58,30.34,10.0,NNE,8.1,-,N/A,,Overcast,30,2012-11-15 01:48:00
8:53 PM,52.0,36.0,54,30.34,10.0,NNE,9.2,-,N/A,,Overcast,20,2012-11-15 01:53:00
9:53 PM,52.0,35.1,53,30.34,10.0,NNE,9.2,-,N/A,,Overcast,30,2012-11-15 02:53:00
10:53 PM,51.1,35.1,54,30.33,10.0,NE,8.1,-,N/A,,Overcast,40,2012-11-15 03:53:00
11:53 PM,51.1,36.0,56,30.32,10.0,NE,5.8,-,N/A,,Overcast,40,2012-11-15 04:53:00